GW1885 Weather Reports


time (UTC)temp
C
wind
direction
speed
KPH
gust
KPH
rain 1hr
cm
rain 24hr
cm
rain mn
cm
humidity
%
barometer
mb
20260504130504 17 274 9.7 24.1 0.00 0.00 0.00 68 1011.0
20260504110503 18 269 3.2 14.5 0.00 0.00 0.00 69 1010.3
20260504100503 18 269 4.8 12.9 0.00 0.00 0.00 68 1010.3
20260504082003 17 277 3.2 9.7 0.00 0.00 0.00 77 1010.1
20260504081503 17 296 3.2 9.7 0.00 0.00 0.00 77 1010.2
20260504081003 17 282 3.2 11.3 0.00 0.00 0.00 79 1009.9
20260504080502 17 264 3.2 11.3 0.00 0.00 0.00 75 1010.1
20260504050504 15 181 0.0 1.6 0.00 0.00 0.00 70 1008.8
20260504050004 15 181 0.0 1.6 0.00 0.00 0.00 70 1008.8
20260504045503 15 181 1.6 3.2 0.00 0.00 0.00 73 1008.7
20260504045003 15 181 1.6 3.2 0.00 0.00 0.00 70 1008.9
20260504044503 15 181 0.0 3.2 0.00 0.00 0.00 71 1008.6
20260504044003 14 181 0.0 3.2 0.00 0.00 0.00 72 1008.6
20260504043503 14 181 0.0 3.2 0.00 0.00 0.00 72 1008.8
20260504043003 14 181 0.0 3.2 0.00 0.00 0.00 70 1008.4
20260504042503 14 181 1.6 3.2 0.00 0.00 0.00 68 1008.3
20260504042004 14 176 1.6 6.4 0.00 0.00 0.00 68 1008.5
20260504041502 14 172 1.6 6.4 0.00 0.00 0.00 69 1008.6
20260504041003 13 170 1.6 6.4 0.00 0.00 0.00 71 1008.7
20260504040502 13 170 1.6 4.8 0.00 0.00 0.00 71 1008.6
20260504040004 13 167 1.6 6.4 0.00 0.00 0.00 71 1008.3
20260504035503 13 167 3.2 6.4 0.00 0.00 0.00 73 1008.6
20260504035004 13 172 1.6 4.8 0.00 0.00 0.00 74 1008.3
20260504034503 13 174 1.6 4.8 0.00 0.00 0.00 72 1008.5
20260504034003 13 173 1.6 4.8 0.00 0.00 0.00 72 1008.4
20260504033503 13 172 1.6 3.2 0.00 0.00 0.00 72 1008.5
20260504033004 13 171 1.6 3.2 0.00 0.00 0.00 72 1008.4
20260504032503 13 170 1.6 3.2 0.00 0.00 0.00 72 1008.5
20260504032002 12 170 1.6 3.2 0.00 0.00 0.00 73 1008.5
20260504031503 12 170 1.6 1.6 0.00 0.00 0.00 73 1008.4
20260504031003 12 170 1.6 3.2 0.00 0.00 0.00 73 1008.4
20260504030502 12 170 1.6 3.2 0.00 0.00 0.00 73 1008.3
20260504030004 12 169 1.6 4.8 0.00 0.00 0.00 73 1008.3
20260504025503 12 169 1.6 4.8 0.00 0.00 0.00 73 1008.3
20260504025024 12 169 3.2 4.8 0.00 0.00 0.00 73 1008.3
20260504024504 12 170 3.2 6.4 0.00 0.00 0.00 72 1008.3
20260504024003 12 171 3.2 6.4 0.00 0.00 0.00 72 1008.4
20260504023504 12 171 3.2 4.8 0.00 0.00 0.00 71 1008.3
20260504023003 12 167 3.2 4.8 0.00 0.00 0.00 71 1008.3
20260504022503 12 155 1.6 4.8 0.00 0.00 0.00 72 1008.3
20260504022025 12 154 1.6 4.8 0.00 0.00 0.00 75 1008.3
20260504021503 12 164 1.6 4.8 0.00 0.00 0.00 72 1008.3
20260504021003 12 168 1.6 4.8 0.00 0.00 0.00 72 1008.3
20260504020524 12 167 1.6 4.8 0.00 0.00 0.00 71 1008.2
20260504020003 12 161 1.6 4.8 0.00 0.00 0.00 71 1008.4
20260504015524 12 157 1.6 3.2 0.00 0.00 0.00 72 1008.3
20260504015024 12 158 1.6 4.8 0.00 0.00 0.00 72 1008.3
20260504014503 12 156 1.6 4.8 0.00 0.00 0.00 71 1008.4
20260504014003 12 150 1.6 3.2 0.00 0.00 0.00 70 1008.4
20260504013525 13 140 1.6 3.2 0.00 0.00 0.00 69 1008.5
20260504013003 13 144 1.6 3.2 0.00 0.00 0.00 70 1008.3
20260504012502 13 151 1.6 3.2 0.00 0.00 0.00 69 1008.5
20260504012003 13 162 0.0 3.2 0.00 0.00 0.00 70 1008.6
20260504011503 13 164 0.0 1.6 0.00 0.00 0.00 69 1008.5
20260504011003 13 165 0.0 1.6 0.00 0.00 0.00 67 1008.6
20260504010504 14 165 0.0 1.6 0.00 0.00 0.00 66 1008.6
20260504010004 14 165 1.6 4.8 0.00 0.00 0.00 67 1008.6
20260504005503 14 162 1.6 4.8 0.00 0.00 0.00 65 1008.6
20260504005025 15 163 1.6 4.8 0.00 0.00 0.00 63 1008.5
20260504004502 15 172 3.2 6.4 0.00 0.00 0.00 63 1008.7
20260504004003 15 174 4.8 6.4 0.00 0.00 0.00 61 1008.6
20260504003504 15 170 4.8 6.4 0.00 0.00 0.00 61 1008.5
20260504003004 15 164 4.8 6.4 0.00 0.00 0.00 62 1008.4
20260504002503 15 162 4.8 6.4 0.00 0.00 0.00 62 1008.5
20260504002003 15 158 3.2 6.4 0.00 0.00 0.00 64 1008.6
20260504001504 13 141 0.0 4.8 0.00 0.00 0.00 70 1008.4
20260504001003 12 135 0.0 1.6 0.00 0.00 0.00 72 1008.5
20260504000504 13 0 0.0 0.0 0.00 0.00 0.00 72 1008.5
20260504000004 13 135 0.0 1.6 0.00 0.00 0.00 72 1008.5
20260503235503 13 135 0.0 1.6 0.00 0.00 0.00 72 1008.4
20260503235004 13 135 0.0 1.6 0.00 0.00 0.00 71 1008.7
20260503234502 13 135 0.0 1.6 0.00 0.00 0.00 70 1008.6
20260503234003 13 135 0.0 1.6 0.00 0.00 0.00 72 1008.6
20260503233502 13 135 0.0 1.6 0.00 0.00 0.00 72 1008.7
20260503233002 13 135 0.0 1.6 0.00 0.00 0.00 70 1008.8
20260503232523 13 135 0.0 1.6 0.00 0.00 0.00 71 1008.8
20260503232004 13 0 0.0 0.0 0.00 0.00 0.00 71 1008.9
20260503231504 13 0 0.0 0.0 0.00 0.00 0.00 71 1008.9
20260503231003 13 135 0.0 1.6 0.00 0.00 0.00 72 1009.0
20260503230503 13 135 0.0 1.6 0.00 0.00 0.00 72 1009.2
20260503230003 13 135 0.0 3.2 0.00 0.00 0.00 72 1009.2
20260503225503 13 135 1.6 3.2 0.00 0.00 0.00 74 1009.1
20260503225003 13 135 0.0 1.6 0.00 0.00 0.00 75 1009.1
20260503224504 13 135 0.0 3.2 0.00 0.00 0.00 75 1009.0
20260503224003 13 135 0.0 3.2 0.00 0.00 0.00 75 1009.0
20260503223502 13 135 0.0 1.6 0.00 0.00 0.00 74 1009.1
20260503223003 13 135 0.0 1.6 0.00 0.00 0.00 74 1009.2
20260503222502 13 135 1.6 3.2 0.00 0.00 0.00 71 1008.9
20260503222002 14 136 1.6 3.2 0.00 0.00 0.00 70 1009.1
20260503221504 14 136 1.6 3.2 0.00 0.00 0.00 70 1009.2
20260503221024 13 135 1.6 3.2 0.00 0.00 0.00 71 1009.4
20260503220504 14 134 1.6 3.2 0.00 0.00 0.00 71 1009.4
20260503215004 14 130 1.6 1.6 0.00 0.00 0.00 73 1009.4
20260503214504 14 130 0.0 1.6 0.00 0.00 0.00 72 1009.6
20260503214004 15 130 0.0 1.6 0.00 0.00 0.00 70 1009.5
20260503213504 15 130 0.0 1.6 0.00 0.00 0.00 70 1009.7
20260503213004 15 130 1.6 3.2 0.00 0.00 0.00 70 1009.5
20260503212505 15 127 1.6 4.8 0.00 0.00 0.00 70 1009.8
20260503212004 15 128 1.6 4.8 0.00 0.00 0.00 67 1009.8
20260503211505 15 129 1.6 4.8 0.00 0.00 0.00 68 1009.8
20260503211005 15 128 1.6 3.2 0.00 0.00 0.00 69 1009.9
20260503210505 14 128 1.6 3.2 0.00 0.00 0.00 70 1010.0
20260503210005 14 128 0.0 1.6 0.00 0.00 0.00 75 1010.0
20260503205504 14 128 0.0 1.6 0.00 0.00 0.00 75 1010.2
20260503205004 14 0 0.0 0.0 0.00 0.00 0.00 72 1010.2
20260503204504 14 128 0.0 1.6 0.00 0.00 0.00 72 1010.2
20260503204026 14 128 1.6 1.6 0.00 0.00 0.00 72 1010.3
20260503203505 14 128 1.6 3.2 0.00 0.00 0.00 74 1010.3
20260503203004 15 128 0.0 3.2 0.00 0.00 0.00 74 1010.2
20260503202504 15 128 0.0 1.6 0.00 0.00 0.00 71 1010.4
20260503202005 15 130 1.6 6.4 0.00 0.00 0.00 72 1010.3
20260503201504 15 133 3.2 12.9 0.00 0.00 0.00 72 1010.6
20260503201046 14 143 3.2 12.9 0.00 0.00 0.00 74 1010.5
20260503200504 14 206 0.0 9.7 0.00 0.00 0.00 77 1010.4
20260503200004 14 231 1.6 9.7 0.00 0.00 0.00 75 1010.5
20260503195504 14 248 1.6 9.7 0.00 0.00 0.00 77 1010.3
20260503195004 15 276 1.6 3.2 0.00 0.00 0.00 74 1010.1
20260503194504 15 290 3.2 12.9 0.00 0.00 0.00 71 1010.9
20260503194005 15 305 3.2 12.9 0.00 0.00 0.00 64 1011.5
20260503193504 15 322 1.6 9.7 0.00 0.00 0.00 63 1011.6
20260503193004 15 333 0.0 3.2 0.00 0.00 0.00 68 1011.9
20260503192525 15 334 0.0 1.6 0.00 0.00 0.00 66 1010.8
20260503192026 15 0 0.0 0.0 0.00 0.00 0.00 65 1010.3
20260503191525 15 334 0.0 1.6 0.00 0.00 0.00 63 1010.4
20260503191004 15 0 0.0 0.0 0.00 0.00 0.00 62 1010.5
20260503190505 15 0 0.0 0.0 0.00 0.00 0.00 62 1010.5
20260503190004 15 0 0.0 0.0 0.00 0.00 0.00 59 1010.4
20260503185504 16 334 0.0 1.6 0.00 0.00 0.00 59 1010.5
20260503185004 16 334 0.0 1.6 0.00 0.00 0.00 58 1010.4
20260503184504 16 334 0.0 1.6 0.00 0.00 0.00 57 1010.4
20260503184025 16 334 0.0 1.6 0.00 0.00 0.00 57 1010.4
20260503183504 16 334 0.0 1.6 0.00 0.00 0.00 60 1010.4
20260503183004 16 0 0.0 0.0 0.00 0.00 0.00 59 1010.3
20260503182504 16 334 0.0 1.6 0.00 0.00 0.00 57 1010.3
20260503182006 17 334 0.0 1.6 0.00 0.00 0.00 56 1010.2
20260503181505 17 334 0.0 1.6 0.00 0.00 0.00 56 1010.0
20260503181005 17 334 0.0 1.6 0.00 0.00 0.00 56 1010.3
20260503180505 17 334 0.0 1.6 0.00 0.00 0.00 55 1010.2
20260503180004 17 0 0.0 0.0 0.00 0.00 0.00 54 1010.1
20260503175525 18 334 0.0 1.6 0.00 0.00 0.00 54 1010.1
20260503175004 18 334 0.0 1.6 0.00 0.00 0.00 52 1010.1
20260503174525 18 334 0.0 1.6 0.00 0.00 0.00 53 1010.0
20260503174025 18 334 0.0 1.6 0.00 0.00 0.00 51 1010.1
20260503173504 19 334 0.0 1.6 0.00 0.00 0.00 50 1010.1
20260503173004 19 334 0.0 1.6 0.00 0.00 0.00 50 1010.2
20260503172505 20 334 0.0 1.6 0.00 0.00 0.00 49 1010.1
20260503172005 20 335 0.0 1.6 0.00 0.00 0.00 49 1010.1
20260503171525 20 335 0.0 1.6 0.00 0.00 0.00 49 1010.2
20260503171004 20 335 0.0 1.6 0.00 0.00 0.00 47 1010.0
20260503170505 21 335 0.0 1.6 0.00 0.00 0.00 48 1010.1
20260503151005 23 309 1.6 6.4 0.00 0.00 0.00 38 1010.1
20260503150505 23 301 1.6 6.4 0.00 0.00 0.00 39 1010.3